Location: Newark
(48.3453°N, 0.5589°E)
Time: 12:30:52
(UTC+00:00)

Courier 1B - All Passes

Search period start: 07 December 2019 00:00
Search period end: 17 December 2019 00:00
Orbit: 963 x 1209 km, 28.3° (Epoch: 06 December)

Date Brightness Start Highest point End Pass type
(mag) Time Alt. Az. Time Alt. Az. Time Alt. Az.
07 Dec - 01:26:39 10° SW 01:30:54 16° S 01:35:07 10° SSE night (unlit)
07 Dec - 22:40:57 10° SSW 22:44:31 14° SSE 22:48:05 10° SE night (unlit)
08 Dec - 00:32:53 10° SW 00:37:20 16° S 00:41:47 10° SSE night (unlit)
08 Dec - 02:28:02 10° SW 02:30:06 11° SSW 02:32:08 10° S night (unlit)
08 Dec - 21:48:29 10° S 21:50:59 12° SSE 21:53:31 10° SE night (unlit)
08 Dec - 23:39:19 10° SW 23:43:46 16° S 23:48:14 10° SE night (unlit)
09 Dec - 01:33:16 10° SW 01:36:34 13° SSW 01:39:53 10° S night (unlit)
09 Dec - 22:45:58 10° SSW 22:50:11 16° S 22:54:28 10° SE night (unlit)
10 Dec - 00:39:06 10° SW 00:43:01 15° S 00:46:58 10° SSE night (unlit)
10 Dec - 21:52:54 10° SSW 21:56:39 14° S 22:00:28 10° SE night (unlit)
10 Dec - 23:45:15 10° SW 23:49:28 16° S 23:53:43 10° SSE night (unlit)
11 Dec - 21:00:11 10° S 21:03:09 13° SSE 21:06:09 10° SE night (unlit)
11 Dec - 22:51:39 10° SW 22:55:54 16° S 23:00:14 10° SSE night (unlit)
12 Dec - 00:46:18 10° SW 00:48:41 12° SSW 00:51:04 10° S night (unlit)
12 Dec - 20:08:23 10° S 20:09:40 10° SSE 20:10:57 10° SSE visible
12 Dec - 21:58:15 10° SSW 22:02:21 16° S 22:06:33 10° SE night (unlit)
12 Dec - 23:51:51 10° SW 23:55:09 13° SSW 23:58:29 10° SSE night (unlit)
13 Dec - 21:05:06 10° SSW 21:08:50 15° S 21:12:39 10° SE visible
13 Dec - 22:57:54 10° SW 23:01:37 14° S 23:05:24 10° SSE night (unlit)
14 Dec - 20:12:15 10° SSW 20:15:21 13° SSE 20:18:31 10° SE visible
14 Dec - 22:04:12 10° SW 22:08:05 15° S 22:12:03 10° SSE night (unlit)
15 Dec - 19:19:57 10° S 19:21:53 11° SSE 19:23:52 10° SSE visible
15 Dec - 21:10:46 10° SSW 21:14:34 15° S 21:18:28 10° SSE visible
15 Dec - 23:05:10 10° SSW 23:07:19 11° SSW 23:09:29 10° S night (unlit)
16 Dec - 20:17:32 10° SSW 20:21:04 14° S 20:24:42 10° SE visible
16 Dec - 22:10:53 10° SW 22:13:49 13° S 22:16:48 10° SSE night (unlit)
